(336272) = 2008 SX201

Discovered at Kitt Peak on 2008-09-26 by Spacewatch.

Orbit

Orbit type: Main Belt

Note: WebGL enabled browser required.

epoch2024-03-31.0
epoch JD2460400.5
perihelion date2021-06-20.97769
perihelion JD2459386.47769
argument of perihelion (°)6.44468
ascending node (°)335.17575
inclination (°)1.17076
eccentricity0.0865618
perihelion distance (AU)2.4536131
Tisserand w.r.t. Jupiter3.4
ΔV w.r.t. Earth (km/sec)9.8
semimajor axis (AU)2.6861293
mean anomaly (°)227.01836
mean daily motion (°/day)0.22387910
aphelion distance (AU)2.919
period (years)4.4
P-vector [x]0.94897864
P-vector [y]-0.29022374
P-vector [z]-0.12332774
Q-vector [x]0.31522367
Q-vector [y]0.86243107
Q-vector [z]0.39603875
absolute magnitude16.88
phase slope0.15
uncertainty0
referenceMPEC 2024-F50
observations used274
oppositions14
arc length (days)7562
first opposition used2003
last opposition used2024
residual rms (arc-secs)0.74
perturbers coarse indicatorM-v
perturbers precise indicator003Ek
first observation date used2003-07-06.0
last observation date used2024-03-19.0
computer nameMPCLINUX
JD of orbit computation2456670.909122
perihelion JD uncertainty (days)1.3094E-04
argument of perihelion uncertainty (°)2.2896E-04
ascending node uncertainty (°)2.2671E-04
inclination uncertainty (°)5.5517E-06
eccentricity uncertainty 6.1501E-08
perihelion distance uncertainty (AU)1.6436E-07
Minimum Orbit Intersection Distances (in AU)
for orbit epoch: 2460400.5, reference: E2024-GB3
Mercury2.05466
Venus1.72795
Earth1.445
Mars1.07235
Jupiter2.38633
Saturn6.24928
Uranus15.5214
Neptune27.2387

Observations

281 total observations over interval: 2003 07 06.41239 – 2024 03 19.534384
These data are available for download (format description).

Date (UT) J2000 RA J2000 Dec Magn Location Ref
2003 07 06.41239 21 39 51.58 -14 52 45.4 21.3 V 691 – Steward Observatory, Kitt Peak-Spacewatch MPS 270297
2003 07 06.44157 21 39 50.98 -14 52 47.6 21.3 V 691 – Steward Observatory, Kitt Peak-Spacewatch MPS 270297
2003 07 06.46438 21 39 50.49 -14 52 49.7 21.4 V 691 – Steward Observatory, Kitt Peak-Spacewatch MPS 270297
2003 07 08.37139 21 39 12.03 -14 55 38.5 20.1   644 – Palomar Mountain/NEAT MPS 270297
2003 07 08.39260 21 39 11.52 -14 55 40.5 20.4   644 – Palomar Mountain/NEAT MPS 270297
2003 07 08.41380 21 39 11.04 -14 55 43.1 19.4   644 – Palomar Mountain/NEAT MPS 270297
2006 02 24.28205 11 36 26.92 +02 09 00.2 21.9 V 691 – Steward Observatory, Kitt Peak-Spacewatch MPS 270297
2006 02 24.29936 11 36 26.14 +02 09 04.7 21.2 V 691 – Steward Observatory, Kitt Peak-Spacewatch MPS 270297
2006 02 24.31666 11 36 25.25 +02 09 09.0 21.6 V 691 – Steward Observatory, Kitt Peak-Spacewatch MPS 270297
2006 03 23.30595 11 14 11.40 +04 21 17.2 21.5 V G96 – Mt. Lemmon Survey MPS 270297
2006 03 23.31081 11 14 11.22 +04 21 17.8 21.1 V G96 – Mt. Lemmon Survey MPS 270297
2006 03 23.31550 11 14 10.93 +04 21 19.1 20.8 V G96 – Mt. Lemmon Survey MPS 270297
2006 03 23.31999 11 14 10.68 +04 21 20.1 20.9 V G96 – Mt. Lemmon Survey MPS 270297
2008 09 26.37075 02 32 50.95 +16 29 30.2   691 – Steward Observatory, Kitt Peak-Spacewatch MPS 259471
2008 09 26.38836 02 32 50.44 +16 29 28.6   691 – Steward Observatory, Kitt Peak-Spacewatch MPS 259471
2008 09 26.40598 02 32 49.98 +16 29 27.1   691 – Steward Observatory, Kitt Peak-Spacewatch MPS 259471
2008 10 01.37339 02 30 18.59 +16 20 51.7 20.4 V 691 – Steward Observatory, Kitt Peak-Spacewatch MPS 259471
2008 10 01.39100 02 30 17.98 +16 20 49.7 20.6 V 691 – Steward Observatory, Kitt Peak-Spacewatch MPS 259471
2008 10 01.40862 02 30 17.38 +16 20 47.8 20.3 V 691 – Steward Observatory, Kitt Peak-Spacewatch MPS 259471
2008 10 08.39687 02 25 44.37 +16 03 15.4 20.3 V 691 – Steward Observatory, Kitt Peak-Spacewatch MPS 260309
2008 10 08.41449 02 25 43.55 +16 03 12.4 20.1 V 691 – Steward Observatory, Kitt Peak-Spacewatch MPS 260309
2008 10 08.43212 02 25 42.78 +16 03 09.1 20.2 V 691 – Steward Observatory, Kitt Peak-Spacewatch MPS 260309
2008 10 09.33757 02 25 03.09 +16 00 26.4 20.5 V 691 – Steward Observatory, Kitt Peak-Spacewatch MPS 260309
2008 10 09.35518 02 25 02.23 +16 00 23.5 20.5 V 691 – Steward Observatory, Kitt Peak-Spacewatch MPS 260309
2008 10 09.37283 02 25 01.43 +16 00 20.0 20.5 V 691 – Steward Observatory, Kitt Peak-Spacewatch MPS 260309
2008 10 25.14355 02 11 39.45 +15 00 22.6 20.1 V 691 – Steward Observatory, Kitt Peak-Spacewatch MPS 261722
2008 10 25.16120 02 11 38.47 +15 00 18.1 20.2 V 691 – Steward Observatory, Kitt Peak-Spacewatch MPS 261722
2008 10 25.17885 02 11 37.49 +15 00 13.6 20.1 V 691 – Steward Observatory, Kitt Peak-Spacewatch MPS 261722
2008 11 06.26014 02 00 52.56 +14 06 03.0 19.7 V G96 – Mt. Lemmon Survey MPS 264656
2008 11 06.26559 02 00 52.23 +14 06 01.4 20.3 V G96 – Mt. Lemmon Survey MPS 264656
2008 11 06.27103 02 00 51.98 +14 06 00.1 20.1 V G96 – Mt. Lemmon Survey MPS 264656
2008 11 07.20494 02 00 05.32 +14 01 53.4 19.5 V G96 – Mt. Lemmon Survey MPS 264656
2008 11 07.21109 02 00 05.04 +14 01 51.2 20.4 V G96 – Mt. Lemmon Survey MPS 264656
2008 11 07.21730 02 00 04.68 +14 01 49.6 20.0 V G96 – Mt. Lemmon Survey MPS 264656
2008 11 07.22351 02 00 04.39 +14 01 48.3 20.4 V G96 – Mt. Lemmon Survey MPS 264656
2008 11 18.12960 01 52 02.83 +13 17 26.2 20.3 V 691 – Steward Observatory, Kitt Peak-Spacewatch MPS 265315
2008 11 18.14295 01 52 02.31 +13 17 23.2 20.2 V 691 – Steward Observatory, Kitt Peak-Spacewatch MPS 265315
2008 11 18.15629 01 52 01.78 +13 17 20.6 20.3 V 691 – Steward Observatory, Kitt Peak-Spacewatch MPS 265315
2008 12 05.15667 01 44 55.68 +12 32 57.0 21.0 V G96 – Mt. Lemmon Survey MPS 268821
2008 12 05.16442 01 44 55.57 +12 32 56.3 20.9 V G96 – Mt. Lemmon Survey MPS 268821
2008 12 05.17214 01 44 55.46 +12 32 55.8 20.9 V G96 – Mt. Lemmon Survey MPS 268821
2008 12 05.17990 01 44 55.39 +12 32 55.1 21.2 V G96 – Mt. Lemmon Survey MPS 268821
2008 12 31.17793 01 48 57.13 +12 43 57.2 21.3 V G96 – Mt. Lemmon Survey MPS 270297
2008 12 31.18792 01 48 57.38 +12 43 58.4 21.9 V G96 – Mt. Lemmon Survey MPS 270297
2008 12 31.19785 01 48 57.60 +12 44 00.2 21.2 V G96 – Mt. Lemmon Survey MPS 270297
2008 12 31.20781 01 48 57.96 +12 44 00.8 21.4 V G96 – Mt. Lemmon Survey MPS 270297
2010 02 11.360759 09 08 50.421 +16 59 20.64 21.41 g F51 – Pan-STARRS 1, Haleakala MPS 337416
2010 02 11.371128 09 08 49.834 +16 59 22.89 21.44 g F51 – Pan-STARRS 1, Haleakala MPS 337416
2010 03 13.21998 08 48 00.75 +18 13 14.0 21.5 V G96 – Mt. Lemmon Survey MPS 318006
2010 03 13.22524 08 48 00.57 +18 13 13.6 21.6 V G96 – Mt. Lemmon Survey MPS 318006
2010 03 13.23057 08 48 00.46 +18 13 13.8 21.5 V G96 – Mt. Lemmon Survey MPS 318006
2010 03 13.23587 08 48 00.36 +18 13 14.3 21.5 V G96 – Mt. Lemmon Survey MPS 318006
2011 05 08.24860 14 42 17.31 -17 33 26.4 20.3 V G96 – Mt. Lemmon Survey MPS 382251
2011 05 08.25789 14 42 16.81 -17 33 24.5 20.4 V G96 – Mt. Lemmon Survey MPS 382251
2011 05 08.26720 14 42 16.30 -17 33 22.4 20.2 V G96 – Mt. Lemmon Survey MPS 382251
2011 05 08.27647 14 42 15.76 -17 33 20.1 20.4 V G96 – Mt. Lemmon Survey MPS 382251
2012 08 08.51398 23 15 39.078 -04 45 54.80 20.0 i F51 – Pan-STARRS 1, Haleakala MPS 429045
2012 08 08.52540 23 15 38.728 -04 45 56.35 20.0 i F51 – Pan-STARRS 1, Haleakala MPS 429045
2012 08 10.51356 23 14 39.680 -04 51 02.24 20.1 r F51 – Pan-STARRS 1, Haleakala MPS 429382
2012 08 10.52725 23 14 39.215 -04 51 04.38 20.1 r F51 – Pan-STARRS 1, Haleakala MPS 429382
2012 08 14.48780 23 12 25.708 -05 02 50.30 20.3 w F51 – Pan-STARRS 1, Haleakala MPS 429382
2012 08 14.50285 23 12 25.131 -05 02 53.16 20.2 w F51 – Pan-STARRS 1, Haleakala MPS 429382
2012 08 14.51789 23 12 24.546 -05 02 56.13 20.3 w F51 – Pan-STARRS 1, Haleakala MPS 429382
2012 08 14.53294 23 12 23.969 -05 02 59.01 20.2 w F51 – Pan-STARRS 1, Haleakala MPS 429382
2012 09 17.24390 22 46 05.98 -07 26 02.0 20.1 V G96 – Mt. Lemmon Survey MPS 433291
2012 09 17.25321 22 46 05.52 -07 26 04.0 20.0 V G96 – Mt. Lemmon Survey MPS 433291
2012 09 17.26250 22 46 05.05 -07 26 06.1 19.9 V G96 – Mt. Lemmon Survey MPS 433291
2012 10 06.19869 22 35 02.54 -08 23 43.0 20.3 V G96 – Mt. Lemmon Survey MPS 434926
2012 10 06.20556 22 35 02.36 -08 23 43.2 20.3 V G96 – Mt. Lemmon Survey MPS 434926
2012 10 06.21240 22 35 02.18 -08 23 44.1 20.2 V G96 – Mt. Lemmon Survey MPS 434926
2012 10 06.21923 22 35 02.04 -08 23 44.5 19.1 V G96 – Mt. Lemmon Survey MPS 434926
2012 11 02.12341 22 34 48.79 -08 17 42.1 21.6 V G96 – Mt. Lemmon Survey MPS 441563
2012 11 02.13067 22 34 48.93 -08 17 41.6 21.2 V G96 – Mt. Lemmon Survey MPS 441563
2012 11 02.13762 22 34 49.04 -08 17 40.2 21.6 V G96 – Mt. Lemmon Survey MPS 441563
2012 11 02.14456 22 34 49.22 -08 17 40.0 21.9 V G96 – Mt. Lemmon Survey MPS 441563
2012 11 07.14167 22 36 50.97 -08 04 43.8 21.0 V G96 – Mt. Lemmon Survey MPS 441563
2012 11 07.14708 22 36 51.12 -08 04 43.2 21.7 V G96 – Mt. Lemmon Survey MPS 441563
2012 11 07.15250 22 36 51.19 -08 04 42.2 21.1 V G96 – Mt. Lemmon Survey MPS 441563
2012 11 07.15796 22 36 51.40 -08 04 41.1 21.4 V G96 – Mt. Lemmon Survey MPS 441563
2013 12 26.37158 06 47 12.583 +24 31 01.47 20.7 w F51 – Pan-STARRS 1, Haleakala MPS 493330
2013 12 26.38697 06 47 11.613 +24 31 02.41 20.6 w F51 – Pan-STARRS 1, Haleakala MPS 493330
2013 12 26.40240 06 47 10.642 +24 31 03.58 20.6 w F51 – Pan-STARRS 1, Haleakala MPS 493330
2013 12 26.41785 06 47 09.650 +24 31 04.34 20.8 w F51 – Pan-STARRS 1, Haleakala MPS 493330
2015 02 16.50441 12 50 21.120 -06 06 43.18 21.5 w F51 – Pan-STARRS 1, Haleakala MPS 583026
2015 02 16.51712 12 50 20.927 -06 06 42.43 21.4 w F51 – Pan-STARRS 1, Haleakala MPS 583026
2015 02 16.52979 12 50 20.715 -06 06 41.75 21.6 w F51 – Pan-STARRS 1, Haleakala MPS 583026
2015 02 16.54248 12 50 20.494 -06 06 40.68 21.6 w F51 – Pan-STARRS 1, Haleakala MPS 583026
2015 04 13.38114 12 12 25.324 -02 27 01.12 21.1 w F51 – Pan-STARRS 1, Haleakala MPS 600490
2015 04 13.39200 12 12 24.824 -02 26 58.15 21.1 w F51 – Pan-STARRS 1, Haleakala MPS 600490
